Weather History for Big Rapids, MI

Change the Weather History Date:

Sunday, March 18, 2012

  Actual Average Record
Temperature  
Mean Temperature 60 °F -  
Max Temperature 75 °F 40 °F 75 °F (2012)
Min Temperature 44 °F 20 °F 1 °F (1993)
Degree Days  
Heating Degree Days 6    
Growing Degree Days 10 (Base 50)    
Moisture  
Dew Point 51 °F    
Average Humidity 81    
Maximum Humidity 100    
Minimum Humidity 49    
Precipitation  
Precipitation 0.00 in - - ()
Sea Level Pressure  
Sea Level Pressure 30.04 in    
Wind  
Wind Speed 2 mph (SSW)    
Max Wind Speed 10 mph    
Max Gust Speed 17 mph    
Visibility 9 miles    
Events      
Averages and records for this station are not official NWS values.
T = Trace of Precipitation, MM = Missing Value Source: NWS Daily Summary

Daily Weather History Graph

Daily Weather History Graph

Search for Another Location

Airport:

Trip Planner

Search our weather history database for the weather conditions in past years. The results will help you decide how hot, cold, wet, or windy it might be!

Date:

Astronomy

Mar. 18, 2012 Rise Set
Actual Time 7:47 AM EDT 7:52 PM EDT
Civil Twilight 7:19 AM EDT 8:21 PM EDT
Nautical Twilight 6:45 AM EDT 8:54 PM EDT
Astronomical Twilight 6:11 AM EDT 9:29 PM EDT
Moon 5:33 AM EDT (3/18) 4:12 PM EDT (3/18)
Length of Visible Light 13h 01m
Length of Day
12h 04m
Waning Crescent, 15% of the Moon is Illuminated
Mar 18
Waning Crescent
Mar 22
New
Mar 30
First Quarter
Apr 6
Full
Apr 13
Last Quarter

Hourly Weather History & Observations

Time (EDT) Temp. Windchill Dew Point Humidity Pressure Visibility Wind Dir Wind Speed Gust Speed Precip Events Conditions
12:14 AM 50.7 °F - 50.0 °F 97% 30.03 in 10.0 mi Calm Calm - N/A   Clear
12:34 AM 50.2 °F - 49.5 °F 97% 30.04 in 10.0 mi Calm Calm - N/A   Clear
12:54 AM 50.7 °F - 49.5 °F 95% 30.04 in 10.0 mi Calm Calm - N/A   Clear
1:14 AM 50.4 °F - 49.3 °F 96% 30.04 in 10.0 mi Calm Calm - N/A   Clear
1:33 AM 50.7 °F - 49.5 °F 95% 30.04 in 10.0 mi Calm Calm - N/A   Clear
1:54 AM 48.9 °F - 48.2 °F 97% 30.04 in 10.0 mi Calm Calm - N/A   Clear
2:14 AM 47.5 °F - 46.9 °F 98% 30.04 in 10.0 mi Calm Calm - N/A   Clear
2:33 AM 48.4 °F - 48.2 °F 99% 30.04 in 10.0 mi Calm Calm - N/A   Clear
3:13 AM 46.6 °F - 46.6 °F 100% 30.04 in 10.0 mi Calm Calm - N/A   Clear
3:34 AM 46.6 °F - 46.6 °F 100% 30.03 in 7.0 mi Calm Calm - N/A   Clear
3:54 AM 46.8 °F - 46.6 °F 99% 30.03 in 10.0 mi Calm Calm - N/A   Clear
4:14 AM 46.0 °F - 46.0 °F 100% 30.03 in 10.0 mi Calm Calm - N/A   Clear
4:34 AM 45.7 °F 42.7 °F 45.7 °F 100% 30.03 in 10.0 mi WNW 5.8 mph - N/A   Clear
4:54 AM 45.9 °F 42.9 °F 45.9 °F 100% 30.03 in 10.0 mi WNW 5.8 mph - N/A   Clear
5:14 AM 45.7 °F - 45.7 °F 100% 30.03 in 7.0 mi Calm Calm - N/A   Clear
5:34 AM 44.6 °F - 44.6 °F 100% 30.03 in 7.0 mi Calm Calm - N/A   Clear
5:54 AM 45.5 °F 42.5 °F 45.5 °F 100% 30.03 in 10.0 mi WNW 5.8 mph - N/A   Clear
6:14 AM 45.7 °F - 45.7 °F 100% 30.03 in 10.0 mi Calm Calm - N/A   Clear
6:34 AM 44.6 °F - 44.6 °F 100% 30.04 in 5.0 mi Calm Calm - N/A   Clear
6:54 AM 44.8 °F - 44.8 °F 100% 30.05 in 7.0 mi Calm Calm - N/A   Scattered Clouds
7:14 AM 45.1 °F - 45.1 °F 100% 30.05 in 7.0 mi Calm Calm - N/A   Scattered Clouds
7:34 AM 44.6 °F - 44.6 °F 100% 30.05 in 10.0 mi Calm Calm - N/A   Clear
7:54 AM 44.4 °F - 44.4 °F 100% 30.05 in 4.0 mi Calm Calm - N/A   Clear
8:14 AM 44.6 °F - 44.6 °F 100% 30.06 in 5.0 mi Calm Calm - N/A   Clear
8:34 AM 45.5 °F - 45.5 °F 100% 30.06 in 7.0 mi Calm Calm - N/A   Clear
8:54 AM 46.4 °F - 46.4 °F 100% 30.07 in 7.0 mi Calm Calm - N/A   Clear
9:14 AM 48.2 °F - 48.2 °F 100% 30.06 in 10.0 mi Calm Calm - N/A   Clear
9:34 AM 49.8 °F - 49.8 °F 100% 30.07 in 10.0 mi Calm Calm - N/A   Clear
9:53 AM 50.4 °F - 50.4 °F 100% 30.07 in 10.0 mi Calm Calm - N/A   Clear
10:14 AM 52.0 °F - 52.0 °F 100% 30.07 in 10.0 mi Calm Calm - N/A   Scattered Clouds
10:34 AM 55.9 °F - 54.5 °F 95% 30.07 in 10.0 mi SSW 5.8 mph - N/A   Scattered Clouds
10:54 AM 59.5 °F - 56.3 °F 89% 30.07 in 10.0 mi SSE 3.5 mph - N/A   Clear
11:14 AM 63.0 °F - 56.7 °F 80% 30.07 in 10.0 mi SE 3.5 mph - N/A   Clear
11:34 AM 63.7 °F - 57.0 °F 79% 30.08 in 10.0 mi SE 3.5 mph - N/A   Clear
11:53 AM 64.8 °F - 55.8 °F 73% 30.07 in 10.0 mi SSW 3.5 mph - N/A   Clear
12:14 PM 67.6 °F - 54.0 °F 61% 30.07 in 10.0 mi Calm Calm - N/A   Clear
12:34 PM 68.4 °F - 54.5 °F 61% 30.06 in 10.0 mi South 5.8 mph - N/A   Clear
12:53 PM 70.3 °F - 54.3 °F 57% 30.06 in 10.0 mi Calm Calm - N/A   Clear
1:14 PM 72.3 °F - 53.8 °F 52% 30.05 in 10.0 mi SSW 3.5 mph - N/A   Clear
1:34 PM 71.6 °F - 54.3 °F 54% 30.05 in 10.0 mi South 4.6 mph - N/A   Clear
1:53 PM 74.1 °F - 55.4 °F 52% 30.05 in 10.0 mi SSE 4.6 mph - N/A   Clear
2:14 PM 73.2 °F - 55.0 °F 53% 30.04 in 10.0 mi SSW 6.9 mph - N/A   Clear
2:33 PM 73.0 °F - 54.1 °F 51% 30.04 in 10.0 mi South 8.1 mph - N/A   Clear
3:14 PM 75.2 °F - 56.1 °F 51% 30.02 in 10.0 mi South 10.4 mph - N/A   Clear
3:33 PM 74.7 °F - 54.7 °F 50% 30.02 in 10.0 mi SSW 10.4 mph - N/A   Clear
3:54 PM 75.0 °F - 54.5 °F 49% 30.01 in 10.0 mi South 9.2 mph - N/A   Clear
4:14 PM 75.2 °F - 56.3 °F 52% 30.01 in 10.0 mi South 10.4 mph 17.3 mph N/A   Clear
4:54 PM 75.2 °F - 56.1 °F 51% 30.01 in 10.0 mi SSW 9.2 mph - N/A   Clear
5:14 PM 75.2 °F - 56.5 °F 52% 30.00 in 10.0 mi SSW 6.9 mph - N/A   Clear
5:33 PM 75.0 °F - 55.6 °F 51% 30.00 in 10.0 mi SSW 6.9 mph - N/A   Scattered Clouds
5:54 PM 74.1 °F - 55.4 °F 52% 29.99 in 10.0 mi SSW 8.1 mph - N/A   Scattered Clouds
6:14 PM 74.5 °F - 55.4 °F 51% 29.99 in 10.0 mi WSW 9.2 mph - N/A   Clear
6:33 PM 73.8 °F - 55.6 °F 53% 29.99 in 10.0 mi South 8.1 mph - N/A   Clear
6:54 PM 73.2 °F - 55.9 °F 55% 29.99 in 10.0 mi SSW 6.9 mph - N/A   Clear
7:14 PM 72.0 °F - 55.8 °F 57% 29.99 in 10.0 mi SW 9.2 mph - N/A   Scattered Clouds
7:33 PM 70.2 °F - 55.4 °F 59% 30.00 in 10.0 mi SW 4.6 mph - N/A   Clear
7:54 PM 69.1 °F - 54.9 °F 60% 30.00 in 10.0 mi SW 3.5 mph - N/A   Clear
8:34 PM 60.6 °F - 53.4 °F 77% 30.00 in 10.0 mi Calm Calm - N/A   Clear
8:54 PM 60.3 °F - 54.3 °F 81% 30.00 in 10.0 mi Calm Calm - N/A   Clear
9:14 PM 58.1 °F - 53.4 °F 84% 30.00 in 10.0 mi Calm Calm - N/A   Clear
9:34 PM 55.8 °F - 52.5 °F 89% 30.00 in 10.0 mi Calm Calm - N/A   Clear
9:54 PM 54.3 °F - 51.3 °F 89% 30.01 in 10.0 mi Calm Calm - N/A   Clear
10:14 PM 54.9 °F - 53.6 °F 96% 30.01 in 10.0 mi Calm Calm - N/A   Clear
10:34 PM 53.4 °F - 52.5 °F 97% 30.01 in 10.0 mi Calm Calm - N/A   Clear
10:54 PM 53.2 °F - 52.3 °F 97% 30.02 in 10.0 mi Calm Calm - N/A   Clear
11:13 PM 54.9 °F - 53.6 °F 96% 30.02 in 10.0 mi Calm Calm - N/A   Clear
11:34 PM 52.5 °F - 51.8 °F 97% 30.02 in 10.0 mi Calm Calm - N/A   Clear
11:54 PM 51.4 °F - 50.5 °F 97% 30.02 in 10.0 mi Calm Calm - N/A   Clear